Location: Arrington
(35.8681°N, 86.7092°W)
Time: 13:07:33
(UTC+00:00)

Cosmos 2228 Rocket - Pass Details

Date: 23 November 2019
Orbit: 619 x 651 km, 82.5° (Epoch: 05 December)

Event Time Altitude Azimuth Distance (km) Brightness Sun altitude
Rises 11:09:53 0° 351° (N) 2,977 6.3 -16.3°
Reaches altitude 10° 11:12:09 10° 350° (N) 2,062 5.5 -15.9°
Maximum altitude 11:16:43 78° 265° (W) 668 3.0 -15.0°
Drops below altitude 10° 11:21:15 10° 179° (S) 2,038 5.9 -14.1°
Sets 11:23:29 0° 178° (S) 2,940 6.8 -13.6°
